Orbital Elements at Epoch 2459200.5 (2020-Dec-17.0) TDB
Reference: JPL 19 (heliocentric ecliptic J2000)
Element | Value | Uncertainty (1-sigma) | Units |
e | .2027115491091044 | 4.1978e-08 | |
a | 2.364846177296832 | 8.5747e-09 | au |
q | 1.885464545292247 | 9.6944e-08 | au |
i | 4.391305598507703 | 4.8063e-06 | deg |
node | 39.77809728733671 | 6.1639e-05 | deg |
peri | 16.97332334657538 | 6.3481e-05 | deg |
M | 26.92076894688729 | 1.2799e-05 | deg |
tp | 2459101.168331077550 (2020-Sep-08.66833108) | 4.7265e-05 | TDB |
period | 1328.320185899324 3.64 | 7.2246e-06 1.978e-08 | d yr |
n | .2710189936293607 | 1.474e-09 | deg/d |
Q | 2.844227809301416 | 1.0313e-08 | au |
|
| | Orbit Determination Parameters
Additional Information
|